Miscellaneous Local Product
Issued by NWS Hastings, NE

Home | Current Version | Previous Version | Text Only | Print | Product List | Glossary Off
Versions: 1 2 3 4 5 6 7 8 9 10 11 12 13 14 15 16 17 18 19 20 21 22 23 24 25 26 27 28 29 30 31 32 33 34 35 36 37 38 39 40 41 42 43 44 45 46 47 48 49 50

022
AXUS43 KGID 290402
MISGRI

GID CWA HOURLY WEATHER ROUNDUP
NATIONAL WEATHER SERVICE HASTINGS NE
1100 PM CDT FRI APR 28 2017

NOTE: "FAIR" INDICATES FEW OR NO CLOUDS BELOW 12,000 FEET WITH NO
SIGNIFICANT WEATHER AND/OR OBSTRUCTIONS TO VISIBILITY.

...SOUTH CENTRAL NEBRASKA...

CITY           SKY/WX    TMP DP  RH WIND       PRES   REMARKS
GRAND ISLAND   CLOUDY    39  38  96 NE8       30.09R WCI  33
HASTINGS       CLOUDY    39  36  89 NE15      30.07S WCI  31
KEARNEY        CLOUDY    37  34  87 N10       30.08R WCI  30
ORD            CLOUDY    41  33  73 N3        30.11R
YORK           CLOUDY    39  39 100 NE13      30.08R WCI  32
AURORA         CLOUDY    40  38  95 NE9       30.08R WCI  33
LEXINGTON      CLOUDY    38  33  81 N8        30.09R WCI  32
HOLDREGE       CLOUDY    37  35  92 N15       30.06F FOG     WCI  28
HEBRON         CLOUDY    40  38  91 NE10      30.04S WCI  34

...NEBRASKA PANHANDLE...

CITY           SKY/WX    TMP DP  RH WIND       PRES   REMARKS
CHADRON        CLOUDY    38  30  73 NE5       30.17R WCI  34
ALLIANCE       CLOUDY    34  31  88 NW5       30.13R WCI  30
SCOTTSBLUFF    CLOUDY    34  32  92 W3        30.15R
SIDNEY         FRZ RAIN  33  31  92 N14       30.10S FOG     WCI  23

...WESTERN AND NORTH CENTRAL NEBRASKA...

CITY           SKY/WX    TMP DP  RH WIND       PRES   REMARKS
VALENTINE      CLOUDY    45  26  47 N6        30.15R
AINSWORTH      CLOUDY    41  31  67 NE3       30.14R
ONEILL         CLOUDY    42  30  63 N5        30.11R
BROKEN BOW     CLOUDY    39  36  89 N6        30.10R WCI  35
IMPERIAL       CLOUDY    36  33  89 NE15      30.08R WCI  27
NORTH PLATTE   CLOUDY    38  35  89 N5        30.11R WCI  34
MCCOOK         CLOUDY    37  34  89 NE12      30.07R WCI  29

...EASTERN NEBRASKA...

CITY           SKY/WX    TMP DP  RH WIND       PRES   REMARKS
NORFOLK        CLOUDY    43  33  68 NE9       30.09R
SO SIOUX CITY  CLOUDY    46  34  62 NE7       30.10R
TEKAMAH        CLOUDY    44  38  79 N7        30.08R
COLUMBUS       CLOUDY    41  36  81 N3        30.10R
ALBION         CLOUDY    42  34  73 N5        30.11R
OMAHA EPPLEY   CLOUDY    43  38  82 N10       30.05R
OFFUTT AFB     CLOUDY    43  38  82 N7        30.04R
MILLARD        CLOUDY    44  40  86 N5        30.06R
LINCOLN        CLOUDY    42  38  85 NE12      30.08R
NEBRASKA CITY  CLOUDY    42  42 100 NE10      30.04R
BEATRICE       CLOUDY    42  40  93 NE10      30.05R
FALLS CITY     CLOUDY    44  42  93 N8        30.00R

...NORTHERN KANSAS...

CITY           SKY/WX    TMP DP  RH WIND       PRES   REMARKS
GOODLAND       CLOUDY    34  33  96 NE15      30.02R WCI  24
HILL CITY      CLOUDY    39  36  89 NE14G22   30.04S WCI  31
NORTON         CLOUDY    37  34  87 N12G20    30.05R WCI  30
PHILLIPSBURG   CLOUDY    39  37  93 N15       30.06R WCI  31
SMITH CENTER   CLOUDY    37  36  93 NE12G17   30.03S WCI  30
HAYS           CLOUDY    42  37  82 NE17      30.00R
RUSSELL        CLOUDY    42  38  85 NE17G24   29.98F
CONCORDIA      CLOUDY    41  39  93 NE9       30.03R
SALINA         CLOUDY    45  41  86 N16       29.99R
TOPEKA         CLOUDY    46  45  96 N12       29.96R



USA.gov is the U.S. government's official web portal to all federal, state and local government web resources and services.